Regional Weather Roundup
Issued by NWS

Home | Current Version | Previous Version | Graphics & Text | Print | Product List | Glossary On
Versions: 1 2 3 4 5 6 7 8 9 10 11 12 13 14 15 16 17 18 19 20 21 22 23 24 25 26 27 28 29 30 31 32 33 34 35 36 37 38 39 40 41 42 43 44 45 46 47 48 49 50
000
ASUS45 KTFX 080110
RWRMT
MONTANA REGIONAL WEATHER ROUNDUP
NATIONAL WEATHER SERVICE GREAT FALLS MT
600 PM MST SUN FEB 07 2016

NOTE: "FAIR" INDICATES FEW OR NO CLOUDS BELOW 12000 FEET WITH NO
SIGNIFICANT WEATHER AND/OR OBSTRUCTIONS TO VISIBILITY.

MTZ001>007-043-080200-
WEST OF THE DIVIDE

CITY           SKY/WX    TMP DP  RH WIND       PRES   REMARKS
KALISPELL      CLOUDY    35  27  72 CALM      30.58S
MISSOULA       CLOUDY    34  24  67 W5        30.59S
BUTTE          CLOUDY    27  17  66 N8        30.52R WCI  19
MULLAN PASS    CLOUDY    27  19  72 VRB3      30.53S
ANACONDA         N/A     28  14  54 S3        30.53R
DEER LODGE       N/A     30  19  64 SW3       30.55R
HAMILTON         N/A     37  25  60 NW5       30.57R
LIBBY            N/A     37  25  60 CALM      30.60S
PLAINS           N/A     40  28  62 CALM      30.56R
$$

MTZ008-052>055-080200-
SOUTHWEST MONTANA

CITY           SKY/WX    TMP DP  RH WIND       PRES   REMARKS
BOZEMAN        MOCLDY    30  19  63 VRB3      30.49R
DILLON         CLOUDY    30  19  63 SE6       30.49R WCI  24
ENNIS          PTCLDY    34  16  47 SE7G14    30.55R WCI  28
TWIN BRIDGES     N/A     31  18  58 E7        30.43R WCI  24
$$

MTZ009-010-012-014-046-048-049-054-080200-
EAST SLOPES AND CENTRAL MONTANA

CITY           SKY/WX    TMP DP  RH WIND       PRES   REMARKS
CUT BANK       PTCLDY    35  14  42 W8        30.39F WCI  29
GREAT FALLS    CLOUDY    39  11  31 CALM      30.43R
MALMSTROM AFB  CLOUDY    39  10  30 NE2       30.44R
HELENA         CLOUDY    41  16  36 W9        30.49R
CHOTEAU          N/A     36   7  30 SE7       30.42S WCI  30
CONRAD           N/A     40  15  36 CALM      30.38F
$$

MTZ011-013-016-021-045-047-050-051-080200-
NORTH CENTRAL MONTANA

CITY           SKY/WX    TMP DP  RH WIND       PRES   REMARKS
HAVRE          CLEAR     33  14  45 N6        30.45R WCI  28
LEWISTOWN      CLEAR     27  10  49 SW3       30.42S
N BAR RANCH      N/A     28   9  43 W7        30.43R WCI  21
CHINOOK          N/A     30  12  47 W6        30.46R WCI  24
$$

MTZ017>020-022>027-061-062-080200-
NORTHEAST MONTANA

CITY           SKY/WX    TMP DP  RH WIND       PRES   REMARKS
GLASGOW        CLEAR     31  19  61 NW15      30.38R WCI  20
JORDAN           N/A     33  18  53 NW16      30.40R WCI  23
SIDNEY         CLEAR     32  16  51 NW10      30.30R WCI  24
WOLF POINT     CLEAR     34  20  56 NW16      30.36R WCI  24
PLENTYWOOD       N/A     28  19  69 NW21G26   30.27R WCI  15
POPLAR           N/A     32  19  59 NW14      30.34R WCI  22
$$

MTZ028>42-056>058-080200-
SOUTHCENTRAL AND SOUTHEAST MONTANA

CITY           SKY/WX    TMP DP  RH WIND       PRES   REMARKS
BAKER          CLEAR     31  12  45 NW21G30   30.30R WCI  18
BILLINGS       PTCLDY    34   9  35 E6        30.44R WCI  29
LIVINGSTON     CLOUDY    37  11  34 NW14      30.44R WCI  28
MILES CITY     CLEAR     34  13  41 NW17      30.38R WCI  23
FORSYTH          N/A     36  12  38 NW10      30.43R WCI  28
LAUREL           N/A     36   8  31 N1        30.39R
ROUNDUP          N/A     32   4  30 CALM      30.31S
$$

REGIONAL REPORTS...DAKOTAS

CITY           SKY/WX    TMP DP  RH WIND       PRES   REMARKS
WILLISTON      CLEAR     32  18  56 NW21G37   30.25R WCI  20
MINOT          CLOUDY    32  17  54 NW36G44   30.12R WCI  16
DICKINSON      CLEAR     29  14  53 NW22G35   30.18R WCI  15
BEACH          MOCLDY    32  14  47 NW24G36   30.30R WCI  19
CROSBY           N/A     28  19  69 NW23G33   30.24R WCI  14
TIOGA          FLURRIES  28  23  80 NW25G38   30.24R WCI  14
WATFORD CITY     N/A     32  18  55 NW18G24   30.24R WCI  20
BISMARCK       CLOUDY    36  18  48 N21G30    30.10R WCI  25
GRAND FORKS    SNOW      15  10  80 N29G44    29.98R VSB 1/2 WCI  -5
FARGO          LGT SNOW  17  12  80 N24       29.96R WCI  -1
BUFFALO SD       N/A     31  12  45 NW28G37   30.19R WCI  17
RAPID CITY     CLEAR     33   9  36 NW28G37   30.23R WCI  20
$$

REGIONAL REPORTS...WYOMING/IDAHO/WASHINGTON

CITY           SKY/WX    TMP DP  RH WIND       PRES   REMARKS
GILLETTE       CLEAR     27  11  51 NW17      30.37R WCI  14
SHERIDAN       CLOUDY    31  15  52 NW14      30.42R WCI  21
BUFFALO WY     CLOUDY    27  14  58 N8        30.38R WCI  19
CODY           CLEAR     30  10  43 S6        30.40S WCI  24
YELLOWSTONE LA   N/A     25  10  53 W7        30.51R WCI  17
IDAHO FALLS    CLOUDY    23  20  88 N6        30.62R WCI  16
SALMON         CLOUDY    21  14  73 E3        30.63R
BOISE          PTCLDY    45  35  68 W7        30.62R
SPOKANE        MOCLDY    39  32  76 NE5       30.61R
$$

REGIONAL REPORTS...ALBERTA

CITY           SKY/WX    TMP DP  RH WIND       PRES   REMARKS
EDMONTON       PTCLDY    28  18  64 W6        30.34F WCI  22
CALGARY        PTCLDY    32   9  37 SE8       30.35R WCI  25
LETHBRIDGE     PTCLDY    34  14  44 SW6       30.39R WCI  29
MEDICINE HAT   CLEAR     32  14  47 SW3       30.43F
WATERTON GATE    N/A     37  16  41 SW26G39     N/A  WCI  26
CARDSTON         N/A     39  16  38 W10         N/A
MILK RIVER       N/A     30  14  51 SE5         N/A
$$

REGIONAL REPORTS...SASKATCHEWAN

CITY           SKY/WX    TMP DP  RH WIND       PRES   REMARKS
SWIFT CURRENT  CLEAR     27  18  69 NW15      30.34R WCI  15
REGINA         PTCLDY    27  19  74 NW21      30.26R WCI  13
SASKATOON      PTCLDY    25  18  74 W15       30.31R WCI  12
CYPRESS HILLS    N/A     27   7  43 NW7         N/A  WCI  19
VAL MARIE        N/A     27  12  54 NW12        N/A  WCI  16
ROCKGLEN         N/A     27  18  69 NW16G23     N/A  WCI  14
$$



USA.gov is the U.S. government's official web portal to all federal, state and local government web resources and services.